User: anonymous   Login
Location: Unspecified
(0.0000°N, 0.0000°E)
Time: 05:30:48
(UTC+00:00)
Language:

Himawari 4 - Orbit

View from above orbital plane
View from above orbital plane
View from above satellite
View from above satellite

Ground track
Ground track

The orbit data is extracted from the following two-line orbital elements,

1 20217U 89070A   17177.52009583 -.00000077 +00000-0 +00000-0 0  9996
2 20217 015.7480 013.7500 0044276 063.3748 089.6643 00.97410648100612
Epoch (UTC): 26 June 2017 12:28:56
Eccentricity: 0.0044276
inclination: 15.7480°
perigee height: 36417 km
apogee height: 36798 km
right ascension of ascending node: 13.7500°
argument of perigee: 63.3748°
revolutions per day: 0.97410648
mean anomaly at epoch: 89.6643°
orbit number at epoch: 10061

The dashed part of the orbit path shows where the satellite is in the earth's shadow,  

DLR